Regional Weather Roundup
Issued by NWS

Home | Current Version | Previous Version | Graphics & Text | Print | Product List | Glossary On
Versions: 1 2 3 4 5 6 7 8 9 10 11 12 13 14 15 16 17 18 19 20 21 22 23 24 25 26 27 28 29 30 31 32 33 34 35 36 37 38 39 40 41 42 43 44 45 46 47 48 49 50
000
ASUS44 KMEG 250310
RWRTN
TENNESSEE HOURLY STATE WEATHER ROUNDUP
NATIONAL WEATHER SERVICE MEMPHIS TN
1000 PM CDT MON APR 24 2017

TNZ002-004-019-021-049-052-054-088>092-250400-
WEST TENNESSEE

CITY           SKY/WX    TMP DP  RH WIND       PRES   REMARKS
MEMPHIS INTL   PTCLDY    65  55  70 SE6       29.76S
NWS MEMPHIS      N/A     62 N/A N/A MISG        N/A
JACKSON        CLEAR     59  57  93 S7        29.78S
DYERSBURG      CLEAR     63  56  78 CALM      29.78
SOMERVILLE     CLEAR     59  55  88 S6G12     29.78R
UNION CITY     CLEAR     63  55  77 S6        29.76R
BOLIVAR        CLEAR     55  54  94 SE3       29.78S
PARIS          CLEAR     57  54  88 S7        29.78S
HUNTINGDON     CLEAR     59  57  94 SE6       29.77S
LEXINGTON      PTCLDY    55  54  94 W6        29.80R
SAVANNAH       PTCLDY    54  54 100 SW3       29.79R
$$

TNZ008-025-027-028-033-062-065-066-250400-
NORTH MIDDLE TENNESSEE

CITY           SKY/WX    TMP DP  RH WIND       PRES   REMARKS
NASHVILLE      PTCLDY    59  56  89 CALM      29.77S
PORTLAND       MOCLDY    55  55 100 CALM      29.77R
CLARKSVILLE    CLEAR     58  53  84 CALM      29.76S
SMYRNA         MOCLDY    57  56  96 CALM      29.78R
COOKEVILLE     CLEAR     52  52 100 CALM      29.76S
GALLATIN       CLEAR     59  57  94 CALM      29.80R
CROSSVILLE     CLOUDY    58  53  84 CALM      29.79R
$$

TNZ061-075-076-078-094-096-097-250400-
SOUTH MIDDLE TENNESSEE

CITY           SKY/WX    TMP DP  RH WIND       PRES   REMARKS
FAYETTEVILLE     N/A     57  57 100 CALM      29.78R
TULLAHOMA        N/A     50  50 100 CALM      29.79R VSB 1
WINCHESTER     MOCLDY    54  54 100 CALM      29.78S
MCMINNVILLE      N/A     54  54 100 CALM      29.77S VSB 1/2
COLUMBIA       CLEAR    N/A N/A N/A CALM      29.77R
SHELBYVILLE    CLOUDY    54  54 100 CALM      29.79R VSB 1/4
$$

TNZ017-018-042-046-047-250400-
NORTHEAST TENNESSEE

CITY           SKY/WX    TMP DP  RH WIND       PRES   REMARKS
TRI CITIES     CLOUDY    55  50  83 E6        29.80S
ELIZABETHTON   CLOUDY    55  54  94 CALM      29.79S
$$

TNZ012-013-036-069-073-074-250400-
CENTRAL EAST TENNESSEE

CITY           SKY/WX    TMP DP  RH WIND       PRES   REMARKS
KNOXVILLE      PTCLDY    59  53  80 NE6       29.74F
OAK RIDGE      CLEAR     62  53  72 E6        29.76F
DOWNTOWN KNOXV CLEAR     59  57  94 CALM      29.76F
GATLINBURG     CLEAR     54  52  94 CALM      29.76S
MORRISTOWN     CLEAR     57  52  82 NE5       29.77S
JACKSBORO      CLOUDY    61  59  94 CALM      29.79F
$$

TNZ083-085-099-250400-
SOUTHEAST TENNESSEE

CITY           SKY/WX    TMP DP  RH WIND       PRES   REMARKS
CHATTANOOGA    MOCLDY    62  57  83 CALM      29.75S
$$

SKY/WX REPORTED AS FAIR MEANS FEW OR NO CLOUDS BELOW
12 THOUSAND FEET.




USA.gov is the U.S. government's official web portal to all federal, state and local government web resources and services.